SCP
0 0 0 0 0 0 0 0 0 0 0 0 0 0 0 0 0 0 0 0 0 0 0 0 0 0 0 0 0 0 0 0 1 1 0 0 0 0 0 0 0 0 0 0 0 0 0 -0 0 0 0 0 0 0
0 0 0 0 0 0 0 0 0 0 0 0 0 0 0 0 0 0 0 0 0 0 0 0 0 0 0 0 0 0 0 0 1 1 0 0 0 0 0 0 0 0 0 0 0 0 0 -0 0 0 0 0 0 0
0 0 0 0 0 0 0 0 0 0 0 0 0 0 0 0 0 0 0 0 0 0 0 0 0 0 0 0 0 0 0 0 0 0 0 1 0 0 0 0 0 0 0 0 0 0 0 0 0 0 0 0 0 0
0 0 0 0 0 0 0 0 0 0 0 0 0 0 0 0 0 0 0 0 0 0 0 0 -0 0 0 0 0 0 0 0 0 0 0 1 0 0 0 1 0 0 0 0 0 0 0 0 0 0 0 0 0 0
0 0 0 0 0 0 0 0 0 0 0 0 0 0 0 0 0 0 0 0 0 0 0 0 0 0 0 0 0 0 0 0 0 0 1 1 1 1 0 0 0 0 0 0 0 0 0 0 0 0 0 0 0 0
0 0 0 0 0 0 0 0 0 0 0 0 0 0 0 0 0 0 0 0 0 0 0 0 0 0 0 0 0 0 0 0 0 0 1 0 0 1 1 1 0 0 0 0 0 0 0 0 0 0 0 0 0 0
0 0 0 0 0 0 0 0 0 0 0 0 0 0 0 0 0 0 0 0 0 0 0 0 0 0 0 0 0 0 0 0 0 1 1 1 0 0 0 0 0 0 0 0 0 0 0 0 0 0 0 0 0 0
0 0 0 0 0 0 0 0 0 0 0 0 0 0 0 0 0 0 0 0 0 0 0 0 0 0 0 0 0 0 0 0 0 0 1 0 0 0 0 0 0 0 0 0 0 0 0 0 0 0 0 0 0 0
0 0 0 0 0 0 0 0 0 0 0 0 0 0 0 0 0 0 0 0 0 0 0 0 0 0 0 0 0 0 0 0 0 0 0 0 0 0 0 0 0 -0 -0 0 0 0 -0 -0 0 0 0 0 0 0
0 0 0 0 0 0 0 0 0 0 0 0 0 0 0 0 0 0 0 0 0 -0 0 0 0 0 0 0 0 0 0 0 0 0 0 0 0 0 0 0 -0 -0 -0 -0 -0 0 -0 -0 -0 0 0 0 0 -0
0 0 0 0 0 0 0 0 0 0 0 0 0 0 0 0 0 0 0 0 0 -0 -0 0 0 0 0 0 0 0 0 0 0 0 0 0 0 0 0 -0 0 0 -0 -0 0 0 0 -0 -0 0 0 0 0 -0
0 0 0 0 0 0 0 0 0 0 0 0 0 0 0 0 0 0 0 0 0 0 0 0 0 0 0 0 0 0 0 0 0 0 0 0 0 0 0 0 0 -0 -0 -0 0 0 0 0 0 0 0 0 -0 -0
0 0 0 0 0 0 0 0 0 0 0 0 0 0 0 0 0 0 0 0 0 0 0 0 0 0 0 0 0 0 0 0 0 0 0 0 0 0 0 0 0 0 -0 0 0 0 0 0 -0 -0 -0 -0 -0 -0
0 0 0 0 0 0 0 0 0 0 0 0 0 0 0 0 0 0 0 0 0 0 0 0 0 0 0 0 0 0 0 0 0 0 0 0 0 0 0 0 0 0 0 -0 -0 -0 -0 -0 -0 -0 -0 -0 -0 -0
0 0 0 0 0 0 0 0 0 0 0 0 0 0 0 0 0 0 0 0 0 0 0 0 0 0 0 0 0 0 0 0 0 0 0 0 0 0 0 0 0 0 0 0 0 -0 -0 -0 -0 -0 -0 -0 -0 -0
0 0 0 0 0 0 0 0 0 0 0 0 0 0 0 0 0 0 0 0 0 0 0 0 0 0 0 0 0 0 0 0 0 0 0 0 0 0 0 0 0 0 0 0 0 0 0 -0 -0 -0 -0 0 -0 0
0 0 0 0 0 0 0 0 0 0 0 0 0 0 0 0 0 0 0 0 0 0 0 0 0 0 0 0 0 0 0 0 0 0 0 0 0 0 0 0 0 0 0 0 0 0 0 0 -0 -0 -0 -0 0 0
0 0 0 0 0 0 0 0 0 0 0 0 0 0 0 0 0 0 0 0 0 0 0 0 0 0 0 0 0 0 0 0 0 0 0 0 0 0 0 0 0 0 0 0 0 0 0 0 0 0 -0 0 0 0
0 0 0 0 0 0 0 0 0 0 0 0 0 0 0 0 0 0 0 0 0 0 0 0 0 0 0 0 0 0 0 0 0 0 0 0 0 0 0 0 0 0 0 0 0 0 0 0 0 0 0 0 0 0
0 0 0 0 0 0 0 0 0 0 0 0 0 0 0 0 0 0 0 0 0 0 0 0 0 0 0 0 0 0 0 0 0 0 0 0 0 0 0 0 0 0 0 0 0 0 0 0 0 0 0 0 0 0
0 0 0 0 0 0 0 0 0 0 0 0 0 0 -0 -0 -0 0 0 0 0 0 0 0 0 0 0 0 0 0 0 0 0 0 0 0 0 0 0 0 0 0 0 0 0 0 0 0 0 0 0 0 0 0
0 0 0 0 0 0 0 0 0 0 0 0 0 -0 -0 -0 -0 -0 -0 0 0 0 0 0 0 0 0 0 0 0 0 0 -0 -0 0 0 0 0 0 0 0 0 0 0 0 0 0 0 0 0 0 0 0 0
0 0 0 0 0 0 0 0 0 0 0 0 0 0 -0 -0 -0 -0 -0 0 0 0 0 0 0 0 0 0 0 0 0 0 0 -0 -0 -0 0 0 0 0 0 0 0 0 0 0 0 0 0 0 0 0 0 0
0 0 0 0 0 0 0 0 0 0 0 0 0 0 0 0 0 -0 0 0 0 0 0 0 -0 0 0 0 0 0 0 0 0 0 0 0 0 0 0 0 0 0 0 0 0 0 0 0 0 0 0 0 0 0
0 0 0 0 0 0 0 0 0 0 0 0 0 0 0 0 0 0 0 0 0 0 0 0 0 0 0 0 0 0 0 0 0 0 0 0 0 0 0 0 0 0 0 0 0 0 0 0 0 0 0 0 0 0
0 0 0 0 0 0 0 0 0 0 0 0 0 0 0 0 0 0 -0 0 0 0 0 0 0 0 0 0 0 0 0 0 0 0 0 0 0 0 0 0 0 0 0 0 0 -0 0 0 0 0 0 0 0 0
0 0 0 0 0 0 0 0 0 0 0 0 0 0 0 0 0 0 0 0 0 0 0 0 0 0 0 0 0 0 0 0 0 0 0 0 0 0 0 0 0 0 0 -0 0 0 -0 0 0 0 0 0 0 0
0 0 0 0 0 0 0 0 0 0 0 0 0 0 0 0 0 0 0 0 0 0 0 0 1 0 0 0 0 0 0 0 0 0 0 0 0 0 0 0 0 0 0 0 -0 -0 -0 -0 -0 0 0 0 0 0
0 0 0 0 0 0 0 0 0 0 0 0 0 0 0 0 0 0 0 0 0 0 0 0 0 0 0 0 0 0 0 0 0 0 0 0 0 0 0 0 0 0 0 0 0 0 -0 0 0 0 0 0 0 0
-0 -0 0 0 0 0 0 0 0 0 0 0 0 0 0 0 0 0 0 0 0 0 0 0 0 0 0 0 0 0 0 0 0 0 0 0 0 0 0 0 0 0 0 0 0 0 0 0 0 0 0 0 0 0
-0 -0 -0 -0 0 0 0 0 0 0 0 0 -0 -0 0 0 0 0 0 0 0 0 0 0 0 0 0 0 0 0 0 0 0 0 0 0 0 0 0 0 0 0 0 0 0 0 0 0 0 0 0 0 0 0
-0 0 0 0 0 -0 -0 0 0 -0 -0 -0 -0 -0 0 0 0 0 0 0 0 0 0 0 0 0 0 0 0 0 0 0 0 0 0 0 0 0 0 0 0 0 0 0 0 0 0 0 0 0 0 0 0 0
0 0 0 0 0 0 -0 -0 -0 -0 -0 -0 -0 0 0 0 0 0 0 0 0 0 0 0 0 0 0 0 0 0 0 0 0 0 0 0 0 0 0 0 0 0 0 0 0 0 0 0 0 0 0 0 0 0
Wind_Speed_500mb
38 34 30 28 28 27 27 26 22 19 15 16 18 15 15 9 9 13 11 12 22 15 19 11 10 7 7 2 8 12 7 8 9 8 12 7 8 7 7 3 8 14 12 9 8 13 22 22 23 14 8 8 19 25
41 38 33 29 28 27 26 27 26 22 19 18 18 16 17 12 9 9 16 11 20 20 17 14 23 28 20 12 11 9 7 3 11 8 3 6 6 8 21 15 8 9 5 1 6 7 9 28 10 8 6 10 17 26
44 41 37 32 31 28 28 27 27 26 23 20 19 17 19 17 10 9 13 13 16 21 29 43 35 26 28 26 22 8 5 8 5 8 9 6 4 6 14 12 12 10 10 5 5 10 9 18 13 8 8 7 19 27
46 44 40 36 29 34 30 29 29 29 25 22 21 18 20 21 12 11 12 12 10 4 9 12 13 24 30 26 25 24 19 14 18 13 8 6 2 4 2 4 9 7 19 12 5 7 7 15 22 13 15 22 27 31
48 47 43 37 30 32 34 32 30 31 26 24 22 19 20 22 15 11 12 14 17 7 7 16 22 23 23 22 23 24 24 20 14 8 9 5 4 5 4 1 10 16 12 12 3 17 2 10 28 24 27 29 32 37
50 49 46 40 33 32 35 34 32 33 28 25 22 21 19 22 19 6 7 7 17 16 8 7 8 12 19 24 21 21 17 15 11 9 8 6 6 5 4 4 9 13 7 5 7 16 17 32 31 25 29 31 31 32
49 49 48 44 40 36 38 37 36 34 29 24 23 21 19 22 22 13 3 10 12 14 5 9 7 13 23 19 16 15 18 11 12 10 11 7 10 7 7 6 16 9 6 8 26 35 27 28 23 29 30 28 32 33
50 49 48 46 43 38 44 42 40 36 30 24 23 20 18 19 20 17 17 17 11 10 8 7 7 13 25 18 17 17 15 17 15 10 7 10 3 7 11 35 30 12 16 13 18 1 15 31 36 34 33 34 35 37
51 49 49 47 45 42 46 45 40 37 31 25 24 19 15 15 12 11 9 5 8 15 6 9 8 13 22 15 15 14 13 10 11 10 8 11 10 13 14 27 40 34 24 22 14 20 32 38 38 37 35 34 36 40
53 52 51 49 46 48 51 48 42 40 34 33 26 12 10 11 12 11 11 9 14 15 7 9 10 6 15 26 21 11 11 11 9 14 16 9 15 12 14 19 27 35 29 39 38 31 34 36 39 39 36 34 36 42
56 51 50 50 50 54 53 51 49 47 43 31 18 13 10 19 15 7 9 9 14 13 14 19 30 12 6 12 14 16 6 7 8 12 11 13 13 17 22 14 23 33 33 36 22 18 28 35 45 43 38 36 39 41
52 53 51 53 55 58 56 56 58 53 36 31 20 16 18 11 10 10 7 7 10 12 22 28 36 26 4 6 11 9 7 5 8 16 10 10 13 24 30 25 30 34 35 36 18 26 33 37 40 41 40 41 41 40
53 54 54 58 60 60 59 62 62 46 44 28 13 12 10 11 9 11 13 8 7 9 19 23 19 22 10 5 9 9 9 11 11 11 11 12 18 25 28 28 32 32 34 31 27 32 34 39 39 39 40 40 41 40
56 55 59 60 62 63 62 65 62 54 37 14 14 8 10 11 12 10 10 4 5 10 8 26 30 19 15 14 6 10 10 5 10 16 19 13 25 31 32 33 39 40 39 36 35 36 39 43 41 38 37 41 41 41
59 59 61 62 63 63 66 64 65 50 19 10 11 10 16 20 6 8 9 9 16 10 5 16 21 10 12 9 10 6 9 11 12 16 9 13 25 33 36 37 39 42 41 38 36 38 42 45 44 40 38 40 39 39
66 60 67 67 64 65 68 68 60 37 9 9 9 8 14 11 16 17 16 14 8 7 10 20 8 9 16 10 20 15 8 14 12 14 9 12 18 27 32 34 36 38 39 38 36 41 44 45 45 42 40 37 38 40
73 44 78 69 66 69 74 65 37 17 10 9 13 22 14 8 11 2 2 7 9 12 14 11 19 21 12 20 25 18 16 6 12 4 4 10 9 19 25 31 36 40 40 39 40 42 43 43 44 45 43 38 36 35
65 57 76 73 74 78 72 30 16 19 12 19 16 17 19 13 7 6 9 7 11 9 13 4 11 21 19 32 27 16 18 2 2 4 4 4 12 17 25 33 39 42 42 42 42 43 44 46 45 41 40 42 36 32
56 70 80 84 97 63 12 21 12 14 18 11 27 15 14 12 13 16 12 7 16 23 23 11 9 18 17 20 38 36 24 7 5 6 5 7 13 21 29 37 42 44 45 46 45 41 40 40 38 37 36 38 32 31
56 78 83 85 75 15 10 10 16 6 9 14 15 19 22 18 14 12 9 13 13 14 14 9 7 18 33 9 21 19 19 18 14 12 13 14 17 27 36 45 46 48 45 43 39 43 41 35 32 32 31 33 33 33
73 80 77 82 28 12 9 14 17 12 6 9 6 12 15 16 20 21 15 22 22 13 10 28 29 9 1 5 5 12 15 16 8 3 14 22 24 30 40 44 49 45 45 41 40 37 35 33 33 32 34 30 27 27
81 95 69 29 12 7 7 12 11 15 10 4 4 8 11 13 22 24 22 27 25 32 29 30 34 19 14 10 8 6 2 7 6 9 16 25 34 39 42 47 46 43 40 38 35 36 31 30 30 30 29 28 29 28
94 63 20 12 7 6 7 18 7 13 7 4 6 7 7 10 14 21 18 30 39 37 36 46 40 22 14 12 18 12 13 14 13 11 22 23 32 39 43 43 41 42 40 34 33 31 31 32 34 29 29 29 28 27
39 10 9 10 7 8 13 8 8 13 12 4 6 8 10 14 14 15 17 36 39 30 37 42 36 34 26 29 22 14 14 17 14 14 21 30 40 42 43 41 38 35 35 37 35 33 32 30 33 29 29 29 28 29
13 5 9 5 8 11 10 12 14 10 10 10 5 10 8 13 9 12 19 36 43 40 38 39 37 37 36 24 20 17 23 15 18 24 28 34 44 48 44 40 37 35 36 36 36 36 33 32 29 30 30 29 30 30
6 10 15 21 16 11 10 12 18 17 10 11 13 13 10 8 9 13 20 46 44 45 44 42 40 34 34 29 22 19 18 18 23 29 35 44 50 55 56 51 45 37 31 31 37 37 36 34 33 33 32 33 35 32
7 10 13 13 14 13 8 9 8 10 14 13 9 12 10 12 14 10 20 40 51 43 41 40 38 39 34 30 19 15 19 23 26 33 40 42 41 41 45 51 46 41 38 36 34 35 38 37 37 34 33 32 30 27
11 11 17 24 15 20 9 10 10 10 8 12 8 11 8 9 2 2 8 21 31 34 37 37 37 38 36 24 6 10 26 32 38 45 45 41 38 37 35 35 36 43 41 37 37 36 36 36 36 35 34 32 29 26
11 10 14 17 21 17 15 12 9 15 20 18 13 13 5 11 22 22 16 19 26 35 46 50 39 37 44 31 18 27 32 42 57 61 58 54 48 38 37 41 50 44 45 48 42 36 37 36 36 35 33 29 26 23
17 27 19 17 9 13 18 26 27 35 35 31 29 33 31 32 32 15 17 25 31 37 53 43 54 33 29 24 25 27 30 37 43 49 57 56 52 49 51 48 47 46 44 43 45 44 44 41 40 33 27 23 20 18
18 41 27 27 18 33 41 34 36 38 33 28 29 37 39 34 19 15 24 33 35 46 60 40 40 51 44 39 42 46 47 43 45 47 49 53 54 54 50 48 45 43 41 40 40 38 37 34 29 26 22 20 18 16
32 32 21 15 15 22 19 21 25 23 24 27 33 32 36 38 10 6 26 23 28 37 50 64 48 51 44 38 38 40 50 53 54 56 60 58 55 52 49 46 44 43 43 42 38 39 36 33 29 26 24 23 22 21
25 27 25 15 12 14 28 27 27 15 22 19 21 37 39 5 7 7 23 30 25 24 40 41 36 39 44 44 51 56 54 57 67 65 64 63 60 53 48 47 46 45 44 41 38 35 33 32 31 28 26 24 22 21
Wind_Direction_500mb
227 231 230 229 236 238 235 233 238 240 240 238 237 228 220 233 270 242 231 233 212 244 247 259 251 276 321 360 310 13 247 198 232 241 258 189 205 140 154 342 196 202 207 192 201 222 238 148 148 215 66 98 152 165
225 228 225 224 231 236 233 230 228 237 234 230 234 226 217 221 261 262 244 214 237 241 256 266 253 255 252 269 312 312 344 359 17 272 233 275 198 173 151 169 192 209 319 321 282 34 115 172 67 113 105 133 154 162
223 224 222 223 230 235 233 228 226 230 230 228 228 223 214 215 241 229 248 226 257 246 275 254 258 271 251 251 239 272 115 9 44 357 322 307 256 288 197 170 147 163 142 264 207 159 171 183 173 159 152 140 151 161
222 221 223 224 236 230 233 228 226 225 228 225 223 219 214 213 233 244 251 219 227 261 278 242 232 240 247 241 232 241 259 296 305 291 267 288 268 322 39 26 249 46 155 182 200 167 182 204 196 167 148 137 143 148
221 220 223 228 235 229 228 224 224 221 223 218 218 214 216 214 225 253 275 245 223 235 303 277 283 245 230 219 217 226 243 255 272 247 226 227 344 226 74 288 210 181 167 206 132 144 56 119 170 157 148 145 148 149
220 220 223 228 230 224 223 222 218 215 217 212 212 210 216 212 212 247 237 248 226 228 291 283 286 228 201 210 207 216 223 221 233 257 250 235 253 279 62 11 353 183 151 10 103 123 104 131 139 145 147 146 147 151
221 222 222 226 226 225 222 218 209 208 211 207 206 206 213 212 206 209 270 159 206 204 247 269 246 192 192 188 190 192 198 206 220 252 234 263 192 258 144 275 25 153 122 113 135 117 113 145 148 146 140 143 144 146
222 224 222 223 225 223 213 208 203 201 202 198 197 199 207 212 219 243 253 269 222 198 244 262 245 199 180 182 187 190 189 203 213 247 229 231 193 225 229 212 217 165 122 156 169 316 165 148 143 144 147 146 144 146
222 221 221 223 218 209 204 199 197 195 191 184 182 185 192 205 210 228 238 294 220 206 275 240 246 169 173 175 170 177 199 210 171 227 209 188 171 217 214 205 189 195 197 183 187 146 144 148 153 154 151 153 154 153
223 224 218 213 210 198 197 194 193 187 175 170 165 171 200 203 185 167 182 192 209 196 238 264 251 221 199 173 191 177 197 234 203 195 150 228 215 213 204 218 230 207 184 176 167 152 154 160 163 162 163 164 163 156
218 213 210 210 197 193 192 190 187 173 168 164 178 195 176 163 173 204 203 202 196 196 197 246 234 239 196 195 191 202 214 207 224 148 212 192 220 186 194 180 174 177 182 184 195 178 176 175 167 163 163 162 160 157
209 205 204 198 190 190 188 184 176 168 171 173 167 158 158 172 189 202 198 213 230 214 185 215 206 205 248 170 205 191 243 209 224 143 201 209 188 173 181 172 172 173 173 177 164 161 165 166 166 162 161 160 160 160
202 201 196 188 188 186 183 179 179 172 163 156 175 175 186 187 194 203 194 198 224 233 178 191 185 192 204 216 219 191 229 220 127 190 200 209 147 171 166 169 172 170 168 164 155 157 159 158 160 159 158 160 159 160
193 189 184 184 184 183 180 180 175 168 164 178 171 183 215 200 218 194 220 109 275 254 202 186 185 187 182 193 211 204 216 220 211 188 196 173 188 177 173 173 172 168 166 162 156 155 157 157 157 157 159 162 162 161
184 182 181 182 181 179 178 178 168 172 187 200 188 210 207 236 228 185 268 287 277 294 252 189 186 218 186 220 205 230 194 212 204 198 166 176 177 172 175 174 174 169 164 161 157 159 160 159 159 158 160 163 165 163
176 175 182 178 177 175 174 169 169 179 200 204 208 234 222 245 240 227 252 253 255 285 213 206 169 207 204 211 195 199 216 194 168 221 173 164 170 180 178 176 173 167 164 161 158 160 160 161 161 159 157 162 168 171
173 177 180 175 171 171 169 153 161 187 216 215 222 222 219 257 258 177 278 277 317 300 198 169 183 202 185 215 203 198 219 161 145 87 171 192 164 177 174 171 167 164 160 157 156 159 159 158 159 157 156 158 160 167
171 179 170 168 164 164 153 152 157 179 212 234 238 214 208 228 222 224 186 244 317 311 260 241 293 201 204 198 200 175 224 130 79 173 169 186 193 179 170 167 163 161 156 155 156 156 157 159 160 163 164 167 166 167
168 168 165 166 166 142 114 171 161 186 208 216 227 230 218 233 243 259 249 279 290 273 289 259 239 202 195 200 200 193 197 214 128 124 121 163 162 160 159 158 157 155 153 155 156 154 158 159 162 165 167 170 173 173
163 164 167 170 160 145 111 111 167 185 202 220 227 226 223 236 241 243 245 248 266 254 223 223 219 194 190 170 212 155 180 173 119 125 125 117 136 146 152 153 155 153 149 145 147 150 152 154 157 161 167 169 171 174
158 164 166 164 155 144 121 150 179 200 193 216 234 222 241 224 227 228 218 247 218 241 234 219 226 189 97 143 140 153 162 156 165 96 141 141 143 149 148 152 149 151 150 153 153 159 156 159 158 161 164 165 168 173
151 165 148 151 152 112 108 162 182 166 190 214 248 233 252 235 225 219 205 222 238 229 228 224 229 233 237 264 303 357 241 200 178 141 135 147 145 150 154 151 152 151 154 156 160 155 158 156 156 156 160 164 160 165
150 142 126 131 111 91 123 152 147 179 186 167 211 228 222 231 218 189 205 217 234 231 225 232 239 256 259 272 297 288 250 206 187 164 149 148 148 151 151 151 155 154 153 152 154 155 154 160 155 153 161 154 160 164
124 95 125 137 124 120 144 168 184 164 172 203 248 245 229 217 191 212 232 225 229 225 220 230 233 237 258 272 267 254 242 200 186 169 161 155 153 153 152 154 155 155 156 150 152 154 155 154 157 154 154 157 158 160
96 128 123 115 146 138 182 178 185 201 203 181 254 249 225 212 217 228 218 223 220 214 215 219 219 220 221 236 250 243 241 194 194 182 171 165 158 149 148 148 151 154 154 154 153 151 153 152 154 153 152 152 154 159
130 164 180 179 165 180 184 190 191 187 188 186 229 250 226 210 235 236 211 214 212 209 207 206 204 208 213 223 215 206 207 188 178 174 166 168 165 159 154 151 149 149 155 157 155 154 152 154 154 151 151 152 152 152
181 177 188 192 188 178 188 214 237 182 187 216 224 212 210 217 222 224 204 199 201 206 203 198 199 196 200 197 186 176 168 163 162 160 154 154 158 163 162 161 158 161 156 155 154 155 153 152 152 152 152 153 154 156
217 214 194 188 200 196 212 195 213 207 222 225 234 230 228 226 254 268 216 199 187 189 184 185 187 191 195 166 214 209 150 155 147 137 137 139 140 142 146 150 161 158 150 147 146 147 148 149 151 150 150 154 155 157
209 203 204 200 200 208 216 200 225 224 226 224 249 250 319 322 312 301 283 193 181 173 176 177 174 170 169 204 184 163 162 153 152 148 142 138 138 137 145 150 150 144 144 141 138 139 141 145 146 145 145 146 150 157
214 196 197 201 203 211 212 207 236 241 240 242 259 285 300 301 299 260 194 168 172 172 172 158 171 164 203 196 165 151 154 157 157 155 148 144 140 139 141 141 142 144 142 140 141 141 147 147 143 143 146 151 155 163
195 192 216 215 224 226 230 236 248 255 256 250 254 269 272 294 306 162 154 167 166 170 157 136 173 214 198 176 164 151 145 149 152 151 149 140 139 141 141 141 142 144 145 146 149 148 147 146 149 151 150 152 159 165
196 197 193 204 225 223 222 232 237 246 261 267 262 252 253 246 198 127 170 164 164 164 164 176 183 184 174 164 154 150 143 147 152 153 144 141 141 143 141 142 143 142 139 139 140 140 140 141 143 144 142 137 136 133
206 192 193 198 193 207 205 194 204 205 213 216 206 211 231 132 96 115 166 167 158 168 172 168 165 161 152 153 154 148 144 143 146 149 150 145 142 141 141 141 140 140 142 142 141 141 142 140 137 135 135 135 133 128
Wind_Speed_850mb
38 34 30 28 28 27 27 26 22 19 15 16 18 15 15 9 9 13 11 12 22 15 19 11 10 7 7 2 8 12 7 8 9 8 12 7 8 7 7 3 8 14 12 9 8 13 22 22 23 14 8 8 19 25
41 38 33 29 28 27 26 27 26 22 19 18 18 16 17 12 9 9 16 11 20 20 17 14 23 28 20 12 11 9 7 3 11 8 3 6 6 8 21 15 8 9 5 1 6 7 9 28 10 8 6 10 17 26
44 41 37 32 31 28 28 27 27 26 23 20 19 17 19 17 10 9 13 13 16 21 29 43 35 26 28 26 22 8 5 8 5 8 9 6 4 6 14 12 12 10 10 5 5 10 9 18 13 8 8 7 19 27
46 44 40 36 29 34 30 29 29 29 25 22 21 18 20 21 12 11 12 12 10 4 9 12 13 24 30 26 25 24 19 14 18 13 8 6 2 4 2 4 9 7 19 12 5 7 7 15 22 13 15 22 27 31
48 47 43 37 30 32 34 32 30 31 26 24 22 19 20 22 15 11 12 14 17 7 7 16 22 23 23 22 23 24 24 20 14 8 9 5 4 5 4 1 10 16 12 12 3 17 2 10 28 24 27 29 32 37
50 49 46 40 33 32 35 34 32 33 28 25 22 21 19 22 19 6 7 7 17 16 8 7 8 12 19 24 21 21 17 15 11 9 8 6 6 5 4 4 9 13 7 5 7 16 17 32 31 25 29 31 31 32
49 49 48 44 40 36 38 37 36 34 29 24 23 21 19 22 22 13 3 10 12 14 5 9 7 13 23 19 16 15 18 11 12 10 11 7 10 7 7 6 16 9 6 8 26 35 27 28 23 29 30 28 32 33
50 49 48 46 43 38 44 42 40 36 30 24 23 20 18 19 20 17 17 17 11 10 8 7 7 13 25 18 17 17 15 17 15 10 7 10 3 7 11 35 30 12 16 13 18 1 15 31 36 34 33 34 35 37
51 49 49 47 45 42 46 45 40 37 31 25 24 19 15 15 12 11 9 5 8 15 6 9 8 13 22 15 15 14 13 10 11 10 8 11 10 13 14 27 40 34 24 22 14 20 32 38 38 37 35 34 36 40
53 52 51 49 46 48 51 48 42 40 34 33 26 12 10 11 12 11 11 9 14 15 7 9 10 6 15 26 21 11 11 11 9 14 16 9 15 12 14 19 27 35 29 39 38 31 34 36 39 39 36 34 36 42
56 51 50 50 50 54 53 51 49 47 43 31 18 13 10 19 15 7 9 9 14 13 14 19 30 12 6 12 14 16 6 7 8 12 11 13 13 17 22 14 23 33 33 36 22 18 28 35 45 43 38 36 39 41
52 53 51 53 55 58 56 56 58 53 36 31 20 16 18 11 10 10 7 7 10 12 22 28 36 26 4 6 11 9 7 5 8 16 10 10 13 24 30 25 30 34 35 36 18 26 33 37 40 41 40 41 41 40
53 54 54 58 60 60 59 62 62 46 44 28 13 12 10 11 9 11 13 8 7 9 19 23 19 22 10 5 9 9 9 11 11 11 11 12 18 25 28 28 32 32 34 31 27 32 34 39 39 39 40 40 41 40
56 55 59 60 62 63 62 65 62 54 37 14 14 8 10 11 12 10 10 4 5 10 8 26 30 19 15 14 6 10 10 5 10 16 19 13 25 31 32 33 39 40 39 36 35 36 39 43 41 38 37 41 41 41
59 59 61 62 63 63 66 64 65 50 19 10 11 10 16 20 6 8 9 9 16 10 5 16 21 10 12 9 10 6 9 11 12 16 9 13 25 33 36 37 39 42 41 38 36 38 42 45 44 40 38 40 39 39
66 60 67 67 64 65 68 68 60 37 9 9 9 8 14 11 16 17 16 14 8 7 10 20 8 9 16 10 20 15 8 14 12 14 9 12 18 27 32 34 36 38 39 38 36 41 44 45 45 42 40 37 38 40
73 44 78 69 66 69 74 65 37 17 10 9 13 22 14 8 11 2 2 7 9 12 14 11 19 21 12 20 25 18 16 6 12 4 4 10 9 19 25 31 36 40 40 39 40 42 43 43 44 45 43 38 36 35
65 57 76 73 74 78 72 30 16 19 12 19 16 17 19 13 7 6 9 7 11 9 13 4 11 21 19 32 27 16 18 2 2 4 4 4 12 17 25 33 39 42 42 42 42 43 44 46 45 41 40 42 36 32
56 70 80 84 97 63 12 21 12 14 18 11 27 15 14 12 13 16 12 7 16 23 23 11 9 18 17 20 38 36 24 7 5 6 5 7 13 21 29 37 42 44 45 46 45 41 40 40 38 37 36 38 32 31
56 78 83 85 75 15 10 10 16 6 9 14 15 19 22 18 14 12 9 13 13 14 14 9 7 18 33 9 21 19 19 18 14 12 13 14 17 27 36 45 46 48 45 43 39 43 41 35 32 32 31 33 33 33
73 80 77 82 28 12 9 14 17 12 6 9 6 12 15 16 20 21 15 22 22 13 10 28 29 9 1 5 5 12 15 16 8 3 14 22 24 30 40 44 49 45 45 41 40 37 35 33 33 32 34 30 27 27
81 95 69 29 12 7 7 12 11 15 10 4 4 8 11 13 22 24 22 27 25 32 29 30 34 19 14 10 8 6 2 7 6 9 16 25 34 39 42 47 46 43 40 38 35 36 31 30 30 30 29 28 29 28
94 63 20 12 7 6 7 18 7 13 7 4 6 7 7 10 14 21 18 30 39 37 36 46 40 22 14 12 18 12 13 14 13 11 22 23 32 39 43 43 41 42 40 34 33 31 31 32 34 29 29 29 28 27
39 10 9 10 7 8 13 8 8 13 12 4 6 8 10 14 14 15 17 36 39 30 37 42 36 34 26 29 22 14 14 17 14 14 21 30 40 42 43 41 38 35 35 37 35 33 32 30 33 29 29 29 28 29
13 5 9 5 8 11 10 12 14 10 10 10 5 10 8 13 9 12 19 36 43 40 38 39 37 37 36 24 20 17 23 15 18 24 28 34 44 48 44 40 37 35 36 36 36 36 33 32 29 30 30 29 30 30
6 10 15 21 16 11 10 12 18 17 10 11 13 13 10 8 9 13 20 46 44 45 44 42 40 34 34 29 22 19 18 18 23 29 35 44 50 55 56 51 45 37 31 31 37 37 36 34 33 33 32 33 35 32
7 10 13 13 14 13 8 9 8 10 14 13 9 12 10 12 14 10 20 40 51 43 41 40 38 39 34 30 19 15 19 23 26 33 40 42 41 41 45 51 46 41 38 36 34 35 38 37 37 34 33 32 30 27
11 11 17 24 15 20 9 10 10 10 8 12 8 11 8 9 2 2 8 21 31 34 37 37 37 38 36 24 6 10 26 32 38 45 45 41 38 37 35 35 36 43 41 37 37 36 36 36 36 35 34 32 29 26
11 10 14 17 21 17 15 12 9 15 20 18 13 13 5 11 22 22 16 19 26 35 46 50 39 37 44 31 18 27 32 42 57 61 58 54 48 38 37 41 50 44 45 48 42 36 37 36 36 35 33 29 26 23
17 27 19 17 9 13 18 26 27 35 35 31 29 33 31 32 32 15 17 25 31 37 53 43 54 33 29 24 25 27 30 37 43 49 57 56 52 49 51 48 47 46 44 43 45 44 44 41 40 33 27 23 20 18
18 41 27 27 18 33 41 34 36 38 33 28 29 37 39 34 19 15 24 33 35 46 60 40 40 51 44 39 42 46 47 43 45 47 49 53 54 54 50 48 45 43 41 40 40 38 37 34 29 26 22 20 18 16
32 32 21 15 15 22 19 21 25 23 24 27 33 32 36 38 10 6 26 23 28 37 50 64 48 51 44 38 38 40 50 53 54 56 60 58 55 52 49 46 44 43 43 42 38 39 36 33 29 26 24 23 22 21
25 27 25 15 12 14 28 27 27 15 22 19 21 37 39 5 7 7 23 30 25 24 40 41 36 39 44 44 51 56 54 57 67 65 64 63 60 53 48 47 46 45 44 41 38 35 33 32 31 28 26 24 22 21
Wind_Direction_850mb
227 231 230 229 236 238 235 233 238 240 240 238 237 228 220 233 270 242 231 233 212 244 247 259 251 276 321 360 310 13 247 198 232 241 258 189 205 140 154 342 196 202 207 192 201 222 238 148 148 215 66 98 152 165
225 228 225 224 231 236 233 230 228 237 234 230 234 226 217 221 261 262 244 214 237 241 256 266 253 255 252 269 312 312 344 359 17 272 233 275 198 173 151 169 192 209 319 321 282 34 115 172 67 113 105 133 154 162
223 224 222 223 230 235 233 228 226 230 230 228 228 223 214 215 241 229 248 226 257 246 275 254 258 271 251 251 239 272 115 9 44 357 322 307 256 288 197 170 147 163 142 264 207 159 171 183 173 159 152 140 151 161
222 221 223 224 236 230 233 228 226 225 228 225 223 219 214 213 233 244 251 219 227 261 278 242 232 240 247 241 232 241 259 296 305 291 267 288 268 322 39 26 249 46 155 182 200 167 182 204 196 167 148 137 143 148
221 220 223 228 235 229 228 224 224 221 223 218 218 214 216 214 225 253 275 245 223 235 303 277 283 245 230 219 217 226 243 255 272 247 226 227 344 226 74 288 210 181 167 206 132 144 56 119 170 157 148 145 148 149
220 220 223 228 230 224 223 222 218 215 217 212 212 210 216 212 212 247 237 248 226 228 291 283 286 228 201 210 207 216 223 221 233 257 250 235 253 279 62 11 353 183 151 10 103 123 104 131 139 145 147 146 147 151
221 222 222 226 226 225 222 218 209 208 211 207 206 206 213 212 206 209 270 159 206 204 247 269 246 192 192 188 190 192 198 206 220 252 234 263 192 258 144 275 25 153 122 113 135 117 113 145 148 146 140 143 144 146
222 224 222 223 225 223 213 208 203 201 202 198 197 199 207 212 219 243 253 269 222 198 244 262 245 199 180 182 187 190 189 203 213 247 229 231 193 225 229 212 217 165 122 156 169 316 165 148 143 144 147 146 144 146
222 221 221 223 218 209 204 199 197 195 191 184 182 185 192 205 210 228 238 294 220 206 275 240 246 169 173 175 170 177 199 210 171 227 209 188 171 217 214 205 189 195 197 183 187 146 144 148 153 154 151 153 154 153
223 224 218 213 210 198 197 194 193 187 175 170 165 171 200 203 185 167 182 192 209 196 238 264 251 221 199 173 191 177 197 234 203 195 150 228 215 213 204 218 230 207 184 176 167 152 154 160 163 162 163 164 163 156
218 213 210 210 197 193 192 190 187 173 168 164 178 195 176 163 173 204 203 202 196 196 197 246 234 239 196 195 191 202 214 207 224 148 212 192 220 186 194 180 174 177 182 184 195 178 176 175 167 163 163 162 160 157
209 205 204 198 190 190 188 184 176 168 171 173 167 158 158 172 189 202 198 213 230 214 185 215 206 205 248 170 205 191 243 209 224 143 201 209 188 173 181 172 172 173 173 177 164 161 165 166 166 162 161 160 160 160
202 201 196 188 188 186 183 179 179 172 163 156 175 175 186 187 194 203 194 198 224 233 178 191 185 192 204 216 219 191 229 220 127 190 200 209 147 171 166 169 172 170 168 164 155 157 159 158 160 159 158 160 159 160
193 189 184 184 184 183 180 180 175 168 164 178 171 183 215 200 218 194 220 109 275 254 202 186 185 187 182 193 211 204 216 220 211 188 196 173 188 177 173 173 172 168 166 162 156 155 157 157 157 157 159 162 162 161
184 182 181 182 181 179 178 178 168 172 187 200 188 210 207 236 228 185 268 287 277 294 252 189 186 218 186 220 205 230 194 212 204 198 166 176 177 172 175 174 174 169 164 161 157 159 160 159 159 158 160 163 165 163
176 175 182 178 177 175 174 169 169 179 200 204 208 234 222 245 240 227 252 253 255 285 213 206 169 207 204 211 195 199 216 194 168 221 173 164 170 180 178 176 173 167 164 161 158 160 160 161 161 159 157 162 168 171
173 177 180 175 171 171 169 153 161 187 216 215 222 222 219 257 258 177 278 277 317 300 198 169 183 202 185 215 203 198 219 161 145 87 171 192 164 177 174 171 167 164 160 157 156 159 159 158 159 157 156 158 160 167
171 179 170 168 164 164 153 152 157 179 212 234 238 214 208 228 222 224 186 244 317 311 260 241 293 201 204 198 200 175 224 130 79 173 169 186 193 179 170 167 163 161 156 155 156 156 157 159 160 163 164 167 166 167
168 168 165 166 166 142 114 171 161 186 208 216 227 230 218 233 243 259 249 279 290 273 289 259 239 202 195 200 200 193 197 214 128 124 121 163 162 160 159 158 157 155 153 155 156 154 158 159 162 165 167 170 173 173
163 164 167 170 160 145 111 111 167 185 202 220 227 226 223 236 241 243 245 248 266 254 223 223 219 194 190 170 212 155 180 173 119 125 125 117 136 146 152 153 155 153 149 145 147 150 152 154 157 161 167 169 171 174
158 164 166 164 155 144 121 150 179 200 193 216 234 222 241 224 227 228 218 247 218 241 234 219 226 189 97 143 140 153 162 156 165 96 141 141 143 149 148 152 149 151 150 153 153 159 156 159 158 161 164 165 168 173
151 165 148 151 152 112 108 162 182 166 190 214 248 233 252 235 225 219 205 222 238 229 228 224 229 233 237 264 303 357 241 200 178 141 135 147 145 150 154 151 152 151 154 156 160 155 158 156 156 156 160 164 160 165
150 142 126 131 111 91 123 152 147 179 186 167 211 228 222 231 218 189 205 217 234 231 225 232 239 256 259 272 297 288 250 206 187 164 149 148 148 151 151 151 155 154 153 152 154 155 154 160 155 153 161 154 160 164
124 95 125 137 124 120 144 168 184 164 172 203 248 245 229 217 191 212 232 225 229 225 220 230 233 237 258 272 267 254 242 200 186 169 161 155 153 153 152 154 155 155 156 150 152 154 155 154 157 154 154 157 158 160
96 128 123 115 146 138 182 178 185 201 203 181 254 249 225 212 217 228 218 223 220 214 215 219 219 220 221 236 250 243 241 194 194 182 171 165 158 149 148 148 151 154 154 154 153 151 153 152 154 153 152 152 154 159
130 164 180 179 165 180 184 190 191 187 188 186 229 250 226 210 235 236 211 214 212 209 207 206 204 208 213 223 215 206 207 188 178 174 166 168 165 159 154 151 149 149 155 157 155 154 152 154 154 151 151 152 152 152
181 177 188 192 188 178 188 214 237 182 187 216 224 212 210 217 222 224 204 199 201 206 203 198 199 196 200 197 186 176 168 163 162 160 154 154 158 163 162 161 158 161 156 155 154 155 153 152 152 152 152 153 154 156
217 214 194 188 200 196 212 195 213 207 222 225 234 230 228 226 254 268 216 199 187 189 184 185 187 191 195 166 214 209 150 155 147 137 137 139 140 142 146 150 161 158 150 147 146 147 148 149 151 150 150 154 155 157
209 203 204 200 200 208 216 200 225 224 226 224 249 250 319 322 312 301 283 193 181 173 176 177 174 170 169 204 184 163 162 153 152 148 142 138 138 137 145 150 150 144 144 141 138 139 141 145 146 145 145 146 150 157
214 196 197 201 203 211 212 207 236 241 240 242 259 285 300 301 299 260 194 168 172 172 172 158 171 164 203 196 165 151 154 157 157 155 148 144 140 139 141 141 142 144 142 140 141 141 147 147 143 143 146 151 155 163
195 192 216 215 224 226 230 236 248 255 256 250 254 269 272 294 306 162 154 167 166 170 157 136 173 214 198 176 164 151 145 149 152 151 149 140 139 141 141 141 142 144 145 146 149 148 147 146 149 151 150 152 159 165
196 197 193 204 225 223 222 232 237 246 261 267 262 252 253 246 198 127 170 164 164 164 164 176 183 184 174 164 154 150 143 147 152 153 144 141 141 143 141 142 143 142 139 139 140 140 140 141 143 144 142 137 136 133
206 192 193 198 193 207 205 194 204 205 213 216 206 211 231 132 96 115 166 167 158 168 172 168 165 161 152 153 154 148 144 143 146 149 150 145 142 141 141 141 140 140 142 142 141 141 142 140 137 135 135 135 133 128